Location: Igri�s
(42.2144°N, 0.4320°W)
Time: 18:13:09
(UTC+00:00)

Cosmos 2227 Rocket - Pass Details

Date: 13 August 2020
Orbit: 840 x 844 km, 71.0° (Epoch: 16 September)

Event Time Altitude Azimuth Distance (km) Brightness Sun altitude
Exits shadow 23:51:12 28° 57° (ENE) 1,536 3.7 -33.4°
Drops below altitude 10° 23:54:07 10° 37° (NE) 2,470 5.1 -33.4°
Sets 23:56:41 0° 31° (NNE) 3,408 6.1 -33.5°
